Wind_Speed
8 8 6 6 5 3 2 3 4 4 4 4 5 6 6 7 7 7 7 8 9 8 6 5 4 5 4 3 3 5 5 4 4 4 4 5 4 4 5 4 4 4 4 4 7 9 11 12 12 12 12 12 12 11 11 10 10 10 11 11 11 11 11 11 11 10 10 10 10 11 10 10 10 9 8 8 8 7 7 6 6 6 6 6 6
6 6 6 5 4 4 4 3 4 5 4 3 5 5 5 6 7 8 8 9 8 6 5 5 4 6 5 2 3 6 6 5 6 6 6 7 5 5 5 5 4 4 4 3 6 8 9 11 12 13 13 13 12 11 11 10 10 11 11 12 13 13 13 12 12 12 12 12 11 11 11 11 11 10 10 9 9 8 8 8 7 7 7 7 7
4 6 7 5 3 5 4 4 5 5 4 4 5 6 6 5 7 10 9 7 6 4 5 5 5 7 4 2 6 6 5 4 5 7 4 4 4 5 5 4 3 3 4 3 3 7 8 9 10 12 13 13 11 11 11 11 11 11 12 13 14 14 14 14 14 14 14 13 12 12 12 12 11 11 11 10 10 9 9 9 9 8 8 8 8
5 5 6 5 5 6 5 5 6 6 5 5 5 7 7 7 8 10 8 5 4 5 5 6 7 7 6 5 7 5 4 5 4 7 6 3 1 4 4 3 2 2 3 3 1 4 6 7 9 10 10 12 12 12 12 13 14 14 14 14 15 15 15 15 15 14 14 13 12 12 12 12 11 11 11 11 11 10 10 10 10 10 10 10 10
7 6 5 5 6 7 5 5 7 7 6 6 5 7 8 7 8 6 3 4 6 6 5 6 7 7 7 6 6 5 4 4 5 7 8 5 5 3 1 3 3 2 1 2 2 1 4 6 7 8 8 10 12 14 15 16 17 18 17 16 15 16 16 16 16 15 14 14 13 13 13 12 12 12 12 12 12 11 11 11 11 11 11 11 11
10 9 8 7 7 7 7 6 7 7 7 7 6 6 7 6 5 4 3 6 6 6 5 5 5 5 5 6 7 7 5 4 7 8 7 5 5 4 2 3 3 4 2 1 2 1 2 5 6 6 7 8 11 14 16 16 17 19 19 18 17 17 17 17 17 16 16 15 15 15 14 14 13 13 13 13 13 13 13 12 12 12 12 12 12
11 10 8 9 8 9 9 8 7 7 7 6 6 6 5 3 2 3 5 6 6 5 4 4 5 5 5 5 6 7 6 5 5 5 4 3 3 3 2 2 1 3 3 1 1 1 2 4 6 6 7 8 10 13 14 15 17 19 20 19 17 17 17 17 17 17 17 17 16 15 15 15 15 15 14 14 14 14 14 14 13 13 13 13 13
12 10 8 9 9 9 8 7 7 5 5 6 5 4 3 2 1 3 5 5 5 6 4 5 6 6 6 4 3 4 5 4 3 2 2 2 2 2 3 2 1 0 3 4 4 2 2 3 5 6 7 7 9 11 12 15 17 18 20 20 18 17 17 17 17 17 17 17 17 16 16 16 16 16 15 15 15 15 15 15 15 15 14 14 14
11 9 10 10 8 8 7 7 6 4 4 4 2 1 1 2 1 2 3 3 5 7 6 6 7 6 7 5 1 2 3 2 1 1 1 1 2 2 3 3 2 1 1 4 6 3 3 2 4 5 6 6 7 9 11 13 15 16 18 18 19 19 18 17 17 17 17 17 18 17 16 17 18 17 17 16 16 16 16 16 16 16 15 15 15
9 10 11 10 7 8 7 6 6 4 3 2 1 2 1 1 2 3 3 3 4 6 6 7 7 7 7 7 4 3 3 3 1 1 1 3 3 3 4 6 4 4 4 3 2 2 4 2 4 5 5 5 5 8 9 9 12 14 15 16 17 17 16 15 16 16 17 17 18 18 17 18 19 19 19 18 18 18 17 17 17 17 17 16 16
10 11 12 9 8 8 7 7 7 3 1 0 2 2 1 0 2 3 4 4 3 3 5 5 7 8 7 7 5 2 2 3 2 3 4 4 6 5 6 7 7 7 7 6 5 4 3 2 2 2 4 5 4 6 7 6 7 10 12 13 14 14 14 14 14 14 15 16 18 19 18 19 19 19 20 20 20 19 19 19 19 18 18 18 17
11 12 11 10 9 9 7 5 4 4 3 1 1 2 2 2 2 2 2 3 3 3 3 4 7 9 7 6 5 2 2 3 3 5 5 7 8 5 7 8 8 8 8 7 6 5 5 4 3 1 1 4 4 5 6 6 6 7 8 10 11 12 12 13 13 13 14 14 16 18 18 18 18 19 19 20 21 21 21 21 21 21 20 20 19
11 12 11 10 9 8 6 5 6 7 4 1 1 2 3 1 1 1 1 2 3 3 4 6 9 9 6 6 5 4 2 3 4 6 6 8 9 7 8 10 9 7 7 7 7 7 7 6 4 2 2 4 5 4 5 5 5 6 7 7 8 8 9 9 10 11 12 13 14 15 16 17 17 17 18 20 21 21 22 22 22 22 22 22 21
12 12 11 10 8 7 8 8 6 7 5 2 2 3 2 1 0 0 2 2 1 2 4 5 9 9 5 5 3 3 2 3 6 6 3 6 9 9 11 11 9 8 6 6 8 8 8 8 6 5 4 4 3 3 3 3 3 4 5 5 6 7 7 7 8 9 9 10 12 13 14 15 15 16 17 18 19 20 21 22 23 22 22 22 23
12 11 9 9 9 9 10 8 5 6 5 3 3 2 1 1 1 0 2 3 2 2 1 3 6 11 8 4 2 1 1 3 5 7 5 8 11 12 12 10 8 8 7 7 8 7 7 8 7 6 6 6 4 3 4 3 2 3 4 5 5 6 6 6 6 7 8 9 10 11 12 13 14 14 15 16 17 18 20 21 22 22 22 22 23
12 11 9 9 11 11 10 8 6 5 5 4 3 1 1 2 1 1 0 4 4 3 4 3 4 6 6 3 3 2 1 3 4 6 8 10 13 11 9 8 8 8 6 7 7 6 6 7 7 7 6 5 5 4 4 3 1 1 1 3 4 5 6 5 5 5 6 8 9 10 11 12 12 14 14 15 16 17 18 19 20 21 22 22 23
11 10 10 10 12 11 9 9 8 6 6 4 4 3 2 3 3 2 0 3 6 1 5 4 3 3 3 3 3 1 1 4 5 4 6 6 7 8 7 5 5 6 7 8 8 6 6 6 7 8 7 6 6 6 5 3 2 1 2 3 4 5 7 7 7 6 7 8 9 9 10 10 11 12 13 13 14 15 16 17 18 19 20 21 22
9 9 10 11 12 11 10 9 9 7 6 4 3 4 4 4 5 3 1 0 3 5 3 4 1 2 2 2 2 3 3 4 4 1 4 6 5 5 6 5 6 5 5 7 9 7 6 5 6 6 7 6 5 6 5 3 2 2 4 4 3 4 5 6 7 8 9 10 11 11 11 12 12 13 13 13 13 14 15 16 16 18 19 20 21
10 10 11 11 12 12 10 10 9 8 8 5 3 5 7 6 5 5 2 1 0 4 4 2 1 2 2 1 2 5 4 3 3 1 2 4 2 0 2 6 8 6 5 8 9 8 5 3 4 4 5 5 3 4 5 3 3 3 3 3 3 3 3 4 5 7 9 10 11 12 12 13 14 15 15 15 15 15 15 15 15 16 17 18 19
12 12 12 12 13 13 11 11 9 8 9 7 4 5 8 9 6 6 5 2 2 2 3 3 4 4 3 4 3 3 2 2 2 1 1 2 2 3 4 6 10 9 7 7 6 5 3 2 2 2 3 5 2 2 3 2 3 3 3 3 4 5 5 5 4 5 6 8 9 10 10 11 12 13 14 15 16 16 17 17 17 17 17 17 17
13 13 14 13 14 14 12 12 10 8 7 6 7 8 9 9 7 6 6 5 4 1 0 2 4 5 4 4 3 3 3 2 1 1 1 0 1 2 5 4 7 7 5 7 7 4 3 1 1 3 1 4 2 3 3 3 5 5 5 5 6 6 7 7 7 6 6 6 7 8 9 9 9 9 11 12 14 15 16 17 18 18 18 17 17
13 14 15 15 15 15 13 13 11 9 8 7 9 10 9 9 9 8 8 8 6 4 3 1 1 3 3 3 2 2 2 0 2 3 1 2 2 3 6 2 3 2 2 7 6 3 1 0 1 3 2 2 2 2 3 5 7 8 8 8 10 9 8 9 9 9 8 8 7 8 8 9 9 9 9 10 11 13 14 15 17 18 19 19 19
15 14 15 15 16 15 13 13 12 9 9 9 9 9 10 11 11 11 10 9 7 6 6 4 4 4 4 6 4 4 5 2 4 4 2 2 2 3 6 7 4 3 3 3 3 3 1 2 4 6 5 5 4 4 5 6 7 9 11 13 13 12 12 12 12 12 12 12 11 10 10 10 10 10 10 10 10 11 11 12 13 15 17 18 19
16 16 16 15 16 16 13 13 13 11 10 11 11 10 13 14 14 13 13 12 10 9 8 6 5 5 6 8 7 6 5 2 3 3 1 2 1 3 6 7 7 3 1 2 2 1 3 5 6 8 9 8 8 8 8 8 9 11 14 15 14 13 14 15 15 15 15 15 14 13 12 12 12 12 12 12 12 11 11 11 11 12 13 15 16
17 18 17 17 17 16 13 13 14 13 11 13 13 11 13 16 15 14 13 13 12 10 9 7 7 7 7 8 8 6 5 4 5 3 2 3 6 3 4 5 6 7 6 3 2 4 7 8 8 10 10 9 9 11 11 11 11 12 13 14 14 15 16 18 18 17 16 15 15 14 14 14 14 14 14 14 14 14 13 12 11 11 12 12 13
19 19 18 18 19 16 14 13 13 13 13 15 14 12 14 16 14 13 13 12 12 11 10 8 7 8 8 8 5 3 2 2 3 4 4 3 2 2 3 5 5 7 8 8 6 6 8 9 10 11 12 12 11 11 12 12 11 11 12 14 15 16 18 21 21 19 16 15 16 16 16 15 15 16 17 17 17 16 16 15 14 13 13 13 13
20 20 18 19 19 18 17 15 14 15 16 16 16 14 14 14 13 13 13 13 12 11 11 9 8 7 8 7 6 5 4 2 1 2 3 3 4 5 4 2 3 5 6 7 9 8 10 11 9 9 10 13 14 12 12 12 12 12 13 15 16 19 21 21 20 19 18 17 18 19 20 19 18 17 18 19 19 19 19 18 17 16 15 14 14
21 21 20 20 21 21 20 18 17 18 18 19 17 16 16 15 14 14 13 12 12 12 11 10 9 8 7 7 7 7 6 4 3 2 1 1 2 2 1 1 1 2 3 4 6 8 11 11 7 5 6 9 10 10 10 12 12 12 14 16 18 21 21 19 19 20 20 20 21 21 22 22 21 21 20 20 21 21 21 21 20 19 19 17 16
22 23 22 22 22 22 22 21 21 21 20 20 19 17 17 16 15 16 14 13 12 13 12 11 9 8 8 9 9 8 6 5 5 3 3 4 5 5 5 5 4 3 2 2 3 6 10 11 9 8 8 9 9 9 11 13 14 15 16 18 20 22 22 21 21 22 22 23 23 23 23 23 24 24 22 21 20 21 22 22 21 21 20 20 19
23 24 24 24 23 23 23 23 23 22 21 21 21 19 18 18 17 16 16 14 13 14 13 12 10 9 8 8 8 8 7 7 6 5 5 7 7 8 8 8 8 7 5 3 4 7 12 13 12 9 8 8 8 9 12 15 16 17 18 21 24 25 25 25 24 24 25 26 26 26 26 26 25 23 20 19 19 19 21 22 22 22 22 22 22
25 25 25 26 25 25 25 24 23 23 22 21 22 21 19 19 18 17 17 16 15 15 15 15 13 11 9 9 9 9 8 7 7 6 6 7 8 9 9 10 11 11 10 7 4 8 12 13 13 12 10 11 12 13 15 16 17 17 18 21 24 24 25 25 26 26 27 28 28 27 26 24 23 21 19 18 18 19 20 21 23 24 24 24 24
27 27 27 27 28 27 26 25 24 24 24 23 23 23 21 20 20 18 18 18 17 16 16 16 14 12 12 11 11 9 8 8 8 7 7 8 8 9 10 11 11 11 12 11 7 8 13 14 14 15 14 14 15 14 15 16 17 18 19 21 23 24 25 26 27 27 26 26 26 26 25 24 23 22 21 21 20 20 21 22 24 25 26 26 26
29 29 29 29 29 29 27 26 25 26 26 25 24 25 24 22 21 20 18 19 20 18 17 17 14 13 14 13 12 11 10 9 9 9 9 9 9 10 10 11 12 11 13 13 10 10 13 14 14 15 15 14 15 14 14 15 17 18 20 22 22 23 23 25 26 26 26 26 26 26 25 25 25 24 23 23 23 23 24 24 24 25 26 27 28
31 31 31 31 31 31 30 29 28 28 28 27 26 26 26 24 23 22 20 21 22 21 20 18 17 15 15 14 13 12 11 11 11 11 11 11 10 11 11 11 12 12 13 13 12 10 12 14 13 14 14 14 14 15 14 16 17 17 18 20 21 21 22 23 24 25 25 25 24 24 24 24 24 25 25 26 25 25 25 23 22 23 24 26 27
31 32 33 34 34 34 33 32 31 30 30 30 28 27 28 27 26 25 23 23 23 22 22 21 19 17 16 15 14 13 12 12 13 13 13 12 12 12 12 12 12 12 11 11 11 11 12 15 15 14 15 16 17 18 18 19 19 19 18 19 19 20 21 21 22 23 23 23 23 23 24 24 25 25 26 26 25 24 24 24 24 24 24 24 25
31 33 34 34 35 35 35 34 33 33 32 32 30 29 29 29 28 27 25 24 24 23 24 22 20 18 17 17 15 14 13 13 14 14 14 13 14 14 13 13 12 12 11 10 11 11 12 15 17 18 19 20 21 21 20 20 20 20 19 19 19 20 20 20 20 21 21 22 22 24 24 25 25 25 25 25 25 25 25 26 26 26 26 27 27
32 34 35 35 35 36 37 36 36 35 34 34 33 31 30 29 29 28 27 27 26 25 24 23 21 19 18 17 16 15 14 15 15 14 14 14 14 14 13 13 12 11 11 10 11 12 13 15 18 20 21 22 22 21 20 20 21 21 20 20 21 21 21 21 20 20 21 21 22 22 23 23 24 24 24 25 26 27 27 28 28 28 29 29 30
32 33 35 36 36 37 37 37 37 37 36 36 35 33 31 30 29 28 27 27 27 26 25 23 21 20 19 18 17 16 16 16 15 15 15 15 14 13 13 13 12 11 11 11 11 12 13 14 17 19 20 20 20 20 21 20 20 21 21 21 21 21 21 21 21 21 20 20 20 21 22 23 24 24 25 26 28 29 30 31 31 31 32 32 33
31 31 34 36 36 37 37 37 37 37 36 35 35 34 31 30 29 29 28 27 27 26 25 23 21 20 20 19 18 18 18 17 16 16 15 14 14 14 14 13 12 11 11 11 12 13 14 15 16 17 17 18 18 19 20 19 18 19 19 18 19 20 19 18 19 19 19 20 21 23 24 25 25 26 27 28 29 30 31 31 31 32 32 33 34
30 30 31 33 35 36 37 37 37 37 36 34 34 34 31 29 29 29 29 28 27 25 24 23 22 20 19 19 19 19 19 18 17 17 16 15 15 15 15 14 12 12 12 13 13 14 14 15 16 17 17 18 18 18 19 18 16 16 16 15 17 19 18 17 17 18 19 21 24 25 26 26 25 25 26 26 27 27 28 29 30 31 32 34 35
30 28 28 29 31 33 34 35 34 33 33 33 33 32 31 29 29 29 28 28 27 25 24 23 22 21 20 19 18 18 18 19 19 18 17 17 16 16 15 14 13 14 14 14 14 14 15 15 17 17 17 16 16 16 17 16 15 16 16 16 17 17 17 18 19 19 19 21 24 25 25 25 24 24 24 25 26 26 27 29 30 31 31 32 32
30 27 26 27 27 28 29 32 32 30 30 31 31 32 32 32 31 29 28 27 26 25 24 22 21 21 20 18 16 17 18 19 19 20 20 20 20 19 18 17 17 17 16 16 16 16 15 15 16 17 15 14 15 15 15 16 16 15 15 14 15 15 15 16 17 18 18 19 21 23 24 24 24 25 26 26 28 29 30 31 32 31 31 31 31
28 27 26 26 27 26 26 28 29 28 29 31 33 34 35 35 33 29 27 26 26 25 24 22 21 21 19 17 16 19 21 20 19 19 20 22 22 21 21 21 21 21 20 18 18 17 15 15 16 17 15 14 15 15 15 15 14 13 13 14 15 16 15 13 13 15 16 17 20 23 25 25 24 26 28 29 30 32 31 31 31 30 31 31 31
26 26 25 25 27 27 26 26 27 28 29 31 33 35 36 35 32 28 25 25 25 24 23 21 20 19 17 17 19 21 21 20 18 16 18 21 21 21 22 22 22 23 22 20 19 19 18 17 18 18 17 16 16 16 14 13 13 14 15 15 15 16 15 13 14 15 16 18 22 25 29 30 27 27 29 30 30 30 29 30 31 29 29 30 31
23 25 24 23 24 26 27 27 27 27 27 28 31 34 35 35 32 27 23 22 21 22 23 23 21 19 17 18 20 20 17 15 15 15 17 19 19 20 21 22 23 23 21 20 20 20 21 22 20 19 18 17 15 15 15 14 15 15 15 15 15 15 16 16 17 20 22 24 26 28 31 31 27 26 28 29 29 29 29 30 30 29 30 31 32
20 22 23 21 20 23 26 27 27 26 26 28 31 32 34 35 32 27 22 20 19 20 21 22 22 21 19 18 19 17 15 15 15 17 19 20 19 19 20 20 21 19 18 19 20 20 23 24 23 22 21 20 19 19 18 16 15 14 15 17 18 19 21 22 23 26 27 26 27 27 27 28 27 25 27 28 28 27 27 28 28 29 30 31 33
17 20 21 20 19 20 23 25 26 25 25 27 30 31 33 34 33 29 24 22 21 21 19 17 20 22 21 19 17 15 14 17 17 17 19 19 18 18 18 18 18 18 19 20 19 19 20 20 21 22 22 21 21 20 17 16 17 18 19 20 20 21 23 24 24 26 25 24 24 24 24 26 26 23 23 25 26 26 26 27 29 30 32 34 36
15 16 19 20 19 19 20 22 24 24 23 24 27 31 33 33 33 32 29 26 24 22 19 17 19 22 21 20 19 16 15 19 20 18 17 17 16 15 16 16 17 18 20 19 18 18 18 16 17 19 19 18 18 17 18 18 20 20 19 19 20 21 21 20 20 22 21 20 22 24 25 25 23 21 22 25 26 27 28 29 30 32 35 37 38
13 12 16 19 19 18 19 20 21 22 22 22 26 30 31 30 30 30 30 29 26 24 21 19 19 21 21 20 20 19 17 19 21 20 19 18 16 15 14 15 15 17 17 17 16 17 17 16 17 16 16 16 16 17 18 18 19 19 19 19 22 23 20 16 15 18 19 19 22 25 26 23 21 21 23 25 26 28 30 32 33 34 35 35 35
13 13 16 17 16 16 16 18 21 21 21 23 27 29 28 26 26 27 29 29 25 22 20 19 19 21 22 22 21 20 20 19 19 18 19 18 17 15 14 13 14 15 15 13 13 12 11 10 11 12 13 14 14 15 17 17 18 20 22 24 26 23 18 15 15 17 19 21 23 22 20 19 19 20 23 26 27 29 31 31 31 31 30 30 31
11 13 16 15 13 13 15 19 22 21 20 23 25 25 24 24 23 25 29 27 22 19 18 19 20 21 22 23 22 21 20 19 18 18 18 17 16 14 12 12 12 13 12 10 10 9 9 8 9 11 12 14 16 17 19 19 20 23 26 30 30 25 20 19 20 17 13 14 16 17 18 19 21 22 24 22 18 21 28 28 27 27 28 29 31
Wind_Direction
199 192 193 190 177 185 227 281 291 290 306 311 309 312 312 310 312 315 317 320 317 313 320 320 319 302 268 263 296 299 293 273 279 275 234 242 259 270 282 298 322 340 325 260 221 203 198 202 201 203 205 206 209 207 201 197 197 195 199 208 209 206 205 206 206 206 207 208 208 211 214 216 219 225 226 226 226 224 225 230 235 241 251 260 265
198 186 186 192 213 240 260 291 285 276 286 295 302 303 299 314 318 311 314 317 317 322 322 320 319 299 263 218 304 301 290 275 278 280 241 218 229 257 275 290 313 348 355 305 237 216 203 202 203 205 206 205 208 212 207 202 203 202 203 210 213 213 210 208 209 209 210 211 212 213 216 217 221 226 228 230 230 231 230 231 235 239 245 254 261
194 185 190 194 231 258 272 284 281 274 265 270 285 280 278 301 307 306 310 308 314 326 317 311 305 305 297 297 310 294 290 315 307 304 284 201 223 273 262 260 297 346 10 355 258 227 210 202 205 207 208 205 204 212 215 208 206 210 211 212 214 217 216 213 215 216 215 216 216 218 219 221 225 228 232 234 235 237 238 238 239 242 246 251 257
209 192 193 202 235 253 257 256 263 268 262 265 277 277 283 299 301 304 315 327 327 303 301 310 309 317 322 319 319 307 331 358 323 321 355 65 4 296 257 243 274 332 359 7 351 230 217 206 208 208 207 207 206 209 212 209 209 212 216 215 214 217 221 220 222 224 223 223 224 225 226 227 230 233 237 240 243 245 246 248 248 250 252 255 260
214 199 193 216 238 247 244 237 251 266 266 265 278 288 296 301 298 310 337 325 310 301 311 322 325 337 336 335 346 353 3 353 322 340 12 25 22 30 312 295 290 289 337 19 29 227 218 213 211 207 205 205 208 213 212 209 209 212 216 217 215 217 220 223 225 226 227 227 229 229 230 232 234 237 241 244 248 250 253 255 256 256 257 259 263
217 215 209 214 227 233 229 232 252 264 258 262 284 296 301 306 308 328 314 297 311 324 328 330 337 344 350 353 347 357 14 354 339 353 10 3 3 26 344 302 307 301 284 86 54 90 200 215 213 204 200 200 203 212 217 215 213 215 217 218 219 219 220 222 224 224 225 226 227 228 230 232 234 237 239 242 245 248 251 255 257 259 260 261 263
213 224 221 209 218 233 236 241 251 260 261 272 293 290 297 323 340 324 309 319 331 319 317 340 343 343 2 360 331 342 356 343 337 346 4 6 352 0 317 273 279 299 287 310 26 105 168 207 207 203 198 196 200 206 214 218 218 218 219 220 221 224 227 228 229 228 229 229 229 230 231 232 233 235 238 240 243 245 248 250 252 255 257 260 262
212 218 218 208 220 239 248 252 248 253 264 276 290 292 308 315 335 331 337 355 325 310 350 6 344 339 336 321 305 337 332 318 328 348 18 23 5 15 345 313 126 177 271 268 257 172 131 192 196 207 208 202 202 201 207 217 222 222 220 222 223 225 229 231 233 236 237 237 235 234 234 235 237 238 239 240 244 246 248 250 251 252 254 257 259
218 213 212 209 219 236 248 257 251 251 259 268 281 81 331 295 74 26 5 23 332 333 7 1 343 339 321 310 8 6 321 304 323 354 67 81 41 39 33 33 61 17 286 229 228 185 109 159 188 202 215 215 209 201 206 217 225 226 222 224 227 229 232 234 236 239 241 241 239 238 239 240 243 245 245 244 245 247 249 251 252 253 254 256 257
215 209 213 212 214 229 241 251 248 247 260 283 201 159 226 304 52 34 20 19 342 348 4 351 338 329 320 325 358 9 328 319 313 239 199 138 93 75 69 58 60 40 41 85 155 129 97 134 185 201 215 222 217 204 212 223 227 230 227 227 232 235 238 242 244 242 241 240 239 241 244 246 247 248 250 250 250 250 251 251 253 254 256 257 258
207 209 217 213 212 225 234 238 235 222 142 247 242 215 209 133 29 15 21 353 317 343 351 336 325 317 310 318 335 347 304 298 264 233 223 151 119 109 94 70 61 61 57 69 87 93 82 92 145 191 207 209 210 205 215 224 227 234 233 233 237 239 243 246 250 251 249 246 245 246 247 249 250 249 251 253 253 253 252 253 253 255 257 257 258
208 212 221 215 209 219 226 217 186 142 131 215 277 18 50 71 31 11 19 330 319 353 345 329 322 309 286 288 295 252 258 265 246 246 221 142 116 124 119 91 68 66 65 63 76 96 92 82 99 108 187 186 191 201 216 221 224 233 235 239 241 242 246 247 250 254 255 253 252 253 252 252 254 255 254 255 255 255 255 255 254 255 256 257 257
211 213 219 211 200 204 194 163 143 142 151 179 100 71 46 30 2 6 319 321 351 358 336 333 326 309 278 292 285 217 223 270 270 265 220 144 119 126 118 93 77 69 65 60 64 83 93 94 103 95 116 169 181 190 218 233 232 232 233 242 248 249 252 251 251 254 254 252 252 256 257 256 258 259 259 259 258 259 258 257 257 257 257 258 258
211 213 216 203 183 170 153 146 153 163 165 155 127 110 43 329 203 351 284 283 356 342 339 336 327 326 324 322 307 172 165 292 292 290 253 133 108 98 89 79 77 70 58 67 76 81 79 71 76 81 88 122 158 176 201 227 232 227 227 233 240 247 255 254 254 256 256 254 254 257 259 259 259 259 260 260 260 261 260 259 258 259 259 259 259
208 209 210 189 167 153 144 148 159 157 159 160 126 92 26 301 169 100 284 284 242 210 7 8 342 344 343 322 307 136 122 309 311 330 3 91 92 74 72 71 77 77 62 69 79 85 81 69 72 77 76 87 92 120 151 164 193 206 216 230 237 243 252 256 253 253 257 259 259 260 259 260 261 259 259 259 259 260 260 260 259 259 262 263 262
207 200 192 175 159 153 151 157 162 153 153 159 135 108 157 164 135 85 322 319 312 204 156 49 12 4 350 321 324 357 50 340 331 348 18 85 91 70 71 66 67 81 82 87 88 86 86 83 88 90 82 79 79 99 127 141 164 156 211 242 254 259 262 263 254 242 245 251 252 255 256 257 260 259 259 259 259 259 260 260 260 259 261 264 265
205 189 176 170 160 157 161 162 165 160 158 171 156 148 178 168 146 117 247 324 333 323 137 94 30 40 13 342 336 358 38 347 341 357 11 52 74 73 86 73 69 95 98 101 109 103 87 80 86 93 98 95 90 96 96 91 95 17 315 290 279 275 274 273 268 253 246 249 252 256 258 257 259 260 259 258 260 261 262 262 261 260 260 263 266
198 178 168 171 167 165 168 165 165 163 166 189 162 151 178 165 145 150 177 61 339 347 82 115 103 102 75 19 3 22 22 342 337 355 6 19 48 75 93 106 112 124 131 127 124 113 96 86 88 89 101 114 115 119 122 126 152 234 293 317 311 289 285 282 280 275 269 267 267 267 268 268 269 270 268 264 264 264 264 264 262 262 262 263 265
190 180 175 177 173 170 170 166 171 176 168 167 188 194 182 156 135 152 147 119 253 347 17 90 108 128 114 80 47 35 36 15 5 351 340 16 42 91 164 160 151 142 145 140 124 111 100 98 106 93 103 115 115 142 159 178 200 226 272 324 335 324 314 296 285 282 280 280 280 277 276 275 276 276 275 273 271 269 267 266 265 264 264 264 265
190 184 179 178 174 172 172 169 172 179 161 154 195 198 161 145 139 150 154 170 168 17 0 8 26 57 67 55 60 38 40 71 38 29 357 347 295 260 245 195 165 153 148 145 127 112 112 97 70 62 121 130 109 173 209 265 244 244 289 310 318 321 318 317 310 296 288 287 288 289 288 286 283 281 279 277 274 272 270 270 269 267 267 266 267
187 182 177 177 175 172 174 173 172 176 164 170 193 173 146 149 158 154 161 174 169 165 289 21 38 62 64 61 54 347 348 34 339 321 51 311 322 275 258 216 158 158 150 129 115 101 104 110 17 358 187 173 159 189 216 258 257 275 298 303 311 311 304 305 305 303 301 296 293 296 298 299 298 293 287 284 280 277 273 271 270 269 268 268 268
181 180 176 176 176 175 177 176 173 178 181 183 180 166 159 170 174 166 170 176 180 198 196 166 140 127 115 130 135 273 267 311 248 212 167 234 230 259 275 321 113 171 89 96 96 85 74 108 278 312 289 201 174 193 225 244 254 271 288 301 307 305 302 300 295 293 291 290 291 292 296 299 302 302 299 295 290 286 281 276 272 269 268 268 267
178 178 177 177 178 178 181 180 177 184 191 185 175 175 180 180 175 171 176 182 182 188 191 200 196 170 184 187 177 228 221 240 264 221 191 248 261 304 317 344 329 228 135 90 11 17 1 303 275 271 263 241 238 241 245 240 242 264 282 291 291 290 298 298 294 292 287 284 284 283 286 289 292 296 298 299 297 294 291 286 280 275 272 270 269
179 179 179 180 181 184 189 188 181 184 191 183 182 194 189 180 179 178 181 185 183 184 189 197 204 201 218 209 196 203 197 201 277 255 221 219 223 315 307 316 310 310 93 221 275 323 286 283 268 258 252 241 232 225 230 240 250 272 283 282 279 283 292 294 294 292 284 281 281 281 284 284 284 285 285 288 291 291 292 290 287 284 281 278 277
183 183 182 184 186 188 193 187 176 179 186 184 191 203 187 176 181 184 185 188 185 187 192 196 205 218 242 237 212 198 195 208 222 231 288 211 188 218 300 331 337 336 339 313 250 260 276 267 243 243 242 230 224 225 238 252 259 272 280 277 278 286 291 293 297 294 283 276 275 277 283 284 284 282 279 278 278 280 282 283 284 284 284 284 284
188 187 186 189 188 188 192 187 178 183 188 189 196 201 182 175 180 185 190 194 189 188 193 198 207 219 241 254 249 243 286 285 200 200 265 279 161 109 13 355 335 318 318 322 312 284 277 263 237 234 234 226 229 237 245 251 254 264 271 270 273 281 286 291 295 292 284 280 280 281 284 286 284 282 281 278 274 272 272 272 273 274 278 283 285
190 190 190 192 190 187 188 189 190 193 193 194 198 199 189 181 183 188 197 201 197 193 193 198 208 216 228 243 255 261 274 311 32 196 257 321 22 39 32 6 324 314 308 309 306 293 287 281 257 239 235 229 234 243 246 246 249 260 268 269 272 278 283 288 290 287 282 281 283 286 288 289 287 283 282 280 276 272 269 267 267 267 269 274 280
189 190 190 190 189 186 185 189 196 197 197 197 198 200 199 194 191 194 199 200 199 200 197 197 206 212 222 234 238 248 256 257 274 306 305 305 334 347 323 229 232 291 299 298 302 293 291 296 298 281 253 236 238 245 248 249 252 260 266 270 274 276 278 280 282 283 282 282 282 284 285 287 287 286 285 281 276 271 269 267 267 267 268 269 273
189 190 191 190 189 187 186 189 196 199 199 197 197 199 200 199 199 198 198 198 200 204 202 201 205 212 225 230 229 239 254 254 261 276 257 252 262 253 242 236 231 242 272 279 279 283 289 297 307 297 263 249 257 262 260 260 262 267 270 272 275 275 275 276 277 278 279 280 280 281 281 282 283 285 285 281 275 270 268 266 265 267 268 268 269
191 191 192 191 190 190 189 192 196 198 198 197 197 200 200 201 204 203 201 200 201 205 207 205 207 218 229 228 225 228 232 237 248 249 229 230 239 241 239 235 234 236 243 263 270 272 281 284 286 281 259 254 270 272 266 269 274 277 276 276 280 282 283 285 285 282 280 279 279 280 280 280 281 281 281 279 275 272 268 265 264 265 267 268 268
193 193 192 191 192 193 194 195 196 196 197 197 198 200 202 202 203 203 202 202 204 205 206 206 209 215 222 225 226 225 222 226 237 239 229 226 228 231 232 232 234 237 241 251 261 263 268 273 275 275 269 271 279 275 270 271 273 274 274 275 278 280 281 283 285 284 283 284 284 284 284 282 282 280 277 277 276 273 270 266 264 262 263 264 265
195 195 193 192 193 195 196 196 196 196 197 198 198 200 203 203 201 202 203 205 208 207 205 207 208 209 215 224 228 224 220 225 234 238 237 236 232 232 234 236 237 239 244 247 253 265 266 268 273 274 273 276 280 278 274 270 265 263 265 269 271 272 273 276 279 281 282 285 286 287 287 285 284 283 279 276 274 272 272 270 268 265 263 262 262
197 197 195 194 195 196 196 196 196 196 196 197 199 200 202 204 203 202 204 207 209 211 209 206 206 208 213 219 225 224 221 226 231 234 237 237 236 237 239 239 241 245 247 246 249 266 272 272 273 276 276 276 275 275 276 275 270 264 260 261 264 266 269 272 275 276 276 278 280 283 285 286 286 286 282 277 273 272 274 276 275 272 269 267 265
198 198 196 195 196 196 197 197 197 197 196 197 198 199 201 203 204 204 206 208 209 212 212 208 206 211 214 216 221 225 227 230 232 233 237 239 237 240 242 243 247 250 250 249 252 264 277 280 279 277 279 282 282 284 287 284 281 277 270 264 262 262 264 266 268 270 271 272 273 276 280 281 282 283 282 281 279 277 277 277 277 276 275 273 271
199 199 198 197 197 198 198 198 197 197 197 197 197 198 200 201 203 204 205 207 209 211 213 210 207 208 212 216 219 225 230 232 234 235 238 239 238 240 243 245 250 255 257 261 266 273 283 289 291 293 296 299 298 296 294 289 285 285 281 276 271 267 264 264 265 267 268 268 269 270 272 274 276 279 281 282 281 280 279 277 276 276 276 276 275
201 201 200 200 199 199 198 198 197 197 197 197 198 199 200 201 203 204 205 205 207 210 211 211 208 208 214 219 221 224 228 231 234 236 236 237 238 240 243 245 248 254 259 263 270 279 287 293 298 302 305 305 301 296 293 291 289 287 282 279 280 277 272 270 269 269 269 270 272 272 270 271 274 278 280 280 279 279 279 277 275 275 275 276 276
204 203 202 201 201 200 199 198 198 197 197 198 198 199 201 202 203 204 206 205 206 208 210 210 210 212 215 220 223 223 227 232 234 235 235 236 237 237 242 249 251 254 259 264 273 279 282 286 291 297 301 299 295 291 290 291 291 289 285 283 283 282 279 277 274 273 273 274 277 277 275 274 273 275 277 278 279 279 278 277 276 275 275 275 276
205 204 202 202 202 202 201 200 200 198 198 198 198 198 199 202 203 204 205 206 207 209 210 210 212 215 216 219 224 225 227 230 231 233 235 235 236 239 244 249 253 258 265 270 276 279 278 280 285 290 294 293 288 285 287 290 290 290 290 288 286 285 285 282 278 278 278 275 275 276 276 276 276 275 275 275 277 278 279 279 279 278 276 275 275
205 204 202 203 205 205 203 202 202 200 199 198 197 196 197 200 202 203 204 204 206 209 211 211 213 218 220 222 227 229 230 231 231 233 234 234 236 241 245 249 254 262 268 272 276 279 280 282 283 284 288 289 284 283 289 292 287 282 283 282 283 288 290 284 279 282 282 278 276 275 276 277 277 277 277 276 277 279 280 280 280 279 278 276 276
207 205 202 203 205 206 205 204 203 202 200 198 198 197 196 198 201 204 204 203 205 207 210 213 216 220 224 225 229 232 232 231 232 233 234 236 239 241 245 250 254 257 265 273 278 280 281 282 283 284 287 287 286 288 292 290 281 276 277 274 277 286 290 286 283 284 283 281 280 279 280 280 278 277 277 278 279 281 281 281 280 279 278 277 278
208 208 205 204 205 205 206 205 204 203 201 199 199 196 195 199 202 204 204 203 205 207 210 214 218 222 227 230 234 237 238 235 232 231 233 234 236 241 245 248 251 255 265 275 280 282 283 282 284 286 286 285 286 290 292 288 285 287 288 282 277 281 286 285 285 285 285 284 283 281 281 280 278 278 278 279 280 281 282 283 283 281 280 281 281
206 208 209 206 202 202 204 204 204 202 200 201 200 195 197 202 203 203 203 202 203 206 210 214 218 224 229 234 241 248 248 242 236 235 236 234 233 238 242 248 255 261 268 274 277 278 280 281 284 285 283 281 284 287 289 291 293 298 302 299 293 294 296 290 286 289 289 287 283 281 280 281 280 281 281 281 282 283 284 284 282 280 279 280 282
204 208 211 207 201 199 200 202 203 201 201 204 201 197 201 206 204 200 200 201 202 205 209 214 219 224 227 230 241 251 250 245 242 241 238 233 232 236 244 253 261 266 268 271 274 275 275 276 279 280 280 281 286 289 290 295 301 307 312 310 303 300 298 293 290 293 293 290 289 288 285 284 284 284 284 284 284 285 286 285 283 281 280 280 281
205 207 212 210 206 203 198 197 199 200 203 206 202 200 205 207 203 200 199 200 203 206 210 216 222 225 227 231 240 248 247 242 243 242 234 230 233 242 251 258 264 267 268 269 271 271 270 270 271 273 275 279 284 287 291 299 308 311 308 303 298 296 294 292 290 291 292 294 296 295 289 287 287 285 284 285 286 287 289 290 289 285 280 279 279
211 210 212 214 213 208 201 198 199 200 203 205 203 205 209 207 201 197 197 199 204 207 212 219 223 226 231 237 242 248 246 234 228 228 230 233 240 248 254 259 264 266 267 269 269 268 266 264 263 266 271 274 278 283 290 298 303 305 304 300 298 296 295 293 290 290 292 293 292 289 285 285 286 283 282 285 287 288 290 291 288 283 279 280 281
214 211 212 213 213 210 205 201 198 196 201 205 205 207 209 205 199 194 194 199 205 208 214 222 226 228 234 242 244 242 234 224 218 222 231 238 243 250 258 263 264 265 270 274 276 274 270 265 261 264 268 271 275 280 286 291 293 295 296 293 292 292 291 290 288 288 291 291 288 282 278 283 285 278 276 282 286 286 287 287 286 286 287 287 287
209 210 211 210 209 209 206 201 195 194 201 205 207 209 209 204 197 195 197 202 206 209 216 226 231 234 241 245 242 235 230 229 226 224 231 237 242 251 260 262 263 268 275 278 279 280 278 271 267 268 271 273 275 276 277 279 283 287 289 288 288 288 286 284 284 285 288 290 287 279 273 279 283 276 276 285 290 289 288 288 287 288 288 287 286
206 208 209 208 205 202 199 196 193 195 199 204 208 210 208 202 199 201 205 209 212 217 224 231 234 239 245 245 242 242 241 235 233 232 234 239 244 248 253 257 261 267 271 273 272 273 275 275 273 271 268 267 267 268 270 277 285 289 287 284 282 279 276 275 277 278 280 287 289 281 275 280 289 291 292 295 296 295 294 292 290 289 287 287 287
205 199 197 197 196 194 193 194 195 196 199 204 207 205 202 200 200 205 212 217 220 224 228 230 232 238 244 244 244 245 240 234 237 240 238 237 237 238 243 250 253 256 261 267 270 272 272 271 271 268 264 264 267 271 276 280 284 284 276 269 269 267 265 266 270 273 278 286 289 284 279 285 299 304 303 302 301 299 297 294 291 290 288 288 288
199 192 185 182 182 185 191 195 196 194 195 198 201 199 198 199 202 208 215 217 219 223 226 229 234 238 239 239 241 243 241 239 238 234 229 231 234 237 240 243 246 252 260 267 274 281 281 272 269 272 273 275 280 283 282 281 281 277 266 261 263 263 260 264 273 280 285 285 285 287 288 297 310 315 312 308 302 296 294 292 291 291 289 289 290
187 181 179 175 174 185 198 202 199 195 189 190 195 197 198 203 210 215 215 213 216 223 226 230 235 235 233 234 236 238 238 236 231 227 231 239 241 239 240 244 249 255 260 262 268 283 295 291 284 281 279 281 284 284 281 280 281 280 271 265 265 263 260 266 273 280 285 281 286 305 316 315 316 315 311 306 299 295 294 292 291 291 290 291 291
Height
837 838 839 839 839 839 839 840 840 841 841 841 840 840 841 841 842 842 842 842 841 842 841 841 841 840 840 841 841 840 840 840 840 840 840 840 840 841 841 841 842 842 842 842 842 842 843 844 845 847 848 850 851 853 854 855 856 856 857 857 858 858 858 859 860 860 861 861 862 863 863 864 865 866 867 867 868 869 869 870 871 871 872 873 873
837 838 838 838 838 839 839 839 840 840 840 840 840 840 841 841 841 841 841 841 841 841 840 840 839 839 839 839 840 840 839 839 839 839 839 839 838 839 840 840 841 841 841 841 842 842 842 843 844 845 846 848 851 852 854 855 856 855 855 855 856 857 857 857 858 859 859 860 861 861 862 863 864 865 866 867 867 868 868 869 870 870 871 872 872
836 837 837 837 837 838 838 839 839 839 839 839 840 841 841 840 840 840 841 840 840 840 839 839 838 838 838 838 839 838 838 838 838 838 838 839 838 838 839 839 840 840 841 841 841 842 842 843 844 844 845 847 850 852 854 855 855 854 853 853 854 855 856 856 857 857 858 859 860 861 862 863 864 864 865 866 866 867 868 868 869 869 870 870 871
835 836 836 836 837 837 838 839 839 839 839 839 840 841 840 840 840 840 840 840 839 839 838 838 838 838 838 838 838 837 838 838 838 838 838 838 838 837 838 839 840 840 841 841 841 841 842 843 843 844 845 846 848 849 850 850 850 849 850 850 852 854 855 856 856 857 858 859 860 861 862 862 863 864 865 865 866 867 867 868 868 869 869 870 870
834 835 835 836 836 837 837 838 838 838 839 839 839 840 840 840 840 840 840 839 838 838 838 838 837 838 837 837 837 837 837 837 838 837 837 837 838 838 838 838 839 839 840 840 840 841 841 842 842 843 844 845 846 846 845 844 844 845 847 849 851 852 854 855 856 856 857 858 859 860 861 862 862 863 864 865 865 866 867 867 868 868 869 869 869
833 834 834 836 836 836 836 837 837 838 838 838 838 839 839 840 840 839 839 838 838 837 837 837 837 837 837 837 837 837 837 837 837 837 837 837 838 838 838 838 838 839 839 840 840 840 840 841 841 842 843 844 844 844 843 843 843 845 846 848 850 851 852 854 854 855 856 856 857 858 859 860 861 861 862 863 864 865 865 866 867 867 868 868 868
832 833 833 834 835 835 836 836 837 838 838 837 837 838 839 839 839 838 838 838 838 837 837 837 837 837 837 837 837 837 837 838 838 837 838 838 838 839 838 839 839 839 839 839 840 840 840 840 841 841 842 842 842 842 843 843 844 844 845 847 849 851 852 853 854 854 855 856 857 857 858 858 859 860 860 861 862 863 864 864 865 866 866 867 867
830 831 832 833 834 834 835 836 836 837 838 836 836 837 838 838 838 838 838 838 837 836 836 836 836 836 836 836 837 837 837 837 837 837 837 838 838 838 838 838 838 839 838 838 838 839 839 839 840 841 841 841 841 842 843 843 843 843 845 846 848 850 851 852 853 854 855 856 857 857 857 858 858 859 859 860 861 861 862 863 864 864 865 865 866
829 830 831 832 833 833 833 834 835 836 836 835 835 836 837 838 838 838 838 838 837 836 836 836 836 836 836 836 836 836 837 837 837 837 837 837 838 838 838 838 838 839 838 837 837 838 839 839 840 840 841 841 841 842 842 842 843 843 845 846 847 848 849 850 851 853 854 855 856 856 857 857 858 858 858 859 859 860 861 861 862 863 863 863 864
828 830 830 831 832 832 832 833 834 835 835 834 835 836 837 837 838 838 838 838 838 837 837 837 837 836 836 836 836 836 836 836 836 836 836 836 837 837 838 838 838 838 838 838 838 838 839 839 839 840 840 841 841 842 842 842 843 844 845 846 846 847 849 849 850 851 852 853 854 855 855 856 856 857 857 858 858 859 859 860 860 861 861 862 862
827 829 830 830 831 831 831 831 832 833 834 834 835 836 836 837 837 837 838 838 837 837 837 837 837 836 836 835 835 835 836 836 836 835 835 836 836 837 837 838 838 838 839 839 839 839 839 839 839 840 840 840 841 841 841 842 843 843 844 845 845 846 848 848 849 850 851 852 852 853 854 854 855 856 856 857 857 857 858 858 859 859 859 860 860
826 827 828 829 829 830 830 831 832 832 834 835 835 836 836 836 837 837 837 837 837 837 837 836 836 836 835 835 834 835 835 835 835 834 834 835 836 836 837 838 838 839 839 839 839 839 839 840 840 840 840 840 841 841 841 841 842 843 843 844 844 845 846 847 848 848 849 850 851 851 852 853 853 854 854 855 855 856 856 857 857 857 857 858 858
825 826 827 827 828 829 829 830 831 832 834 834 835 835 835 836 836 836 837 836 836 836 836 836 836 835 834 834 833 834 834 834 834 833 833 834 834 836 837 838 839 839 840 840 840 840 840 840 840 840 840 840 841 841 841 841 842 842 843 843 843 844 845 845 846 847 847 848 849 849 850 851 851 852 853 853 853 854 854 855 855 855 856 856 857
823 825 826 826 827 828 829 830 831 832 833 833 834 834 835 835 835 836 836 836 836 836 836 836 836 836 834 833 833 834 833 833 834 833 832 833 834 835 836 837 839 839 840 840 840 841 841 840 840 840 840 840 841 841 841 841 842 842 842 843 843 843 844 845 845 846 846 847 847 848 848 848 849 850 850 851 851 852 852 852 853 854 854 855 855
822 823 824 824 826 827 828 829 830 831 832 832 833 833 834 835 835 835 835 836 836 836 836 836 836 836 835 835 835 835 835 834 833 833 832 833 834 836 837 838 839 839 840 840 841 841 841 841 841 841 841 841 841 841 842 842 842 842 842 843 843 843 843 844 844 845 845 845 846 846 846 847 847 848 848 849 849 849 849 850 851 852 852 852 853
821 822 823 824 825 826 827 828 829 830 830 831 832 832 833 834 834 835 835 836 836 836 836 836 836 836 836 837 835 836 840 837 833 833 833 833 834 836 838 838 839 839 840 840 841 841 842 842 841 841 841 841 841 842 842 843 843 843 843 843 843 843 843 843 844 844 844 844 844 844 845 845 846 846 846 847 847 847 847 848 849 849 849 850 850
819 821 822 823 824 825 826 827 828 829 830 831 831 832 833 833 834 835 835 835 836 836 836 836 837 837 837 838 838 840 842 838 836 836 834 834 835 836 838 838 838 839 840 840 841 841 842 842 842 842 841 841 841 842 842 843 843 843 843 843 843 843 843 843 843 843 843 843 843 843 844 844 844 845 845 845 845 845 845 846 846 847 847 847 848
818 820 821 822 823 824 825 826 827 828 829 830 830 831 832 832 833 834 834 835 835 835 836 836 836 837 837 837 839 841 839 837 839 839 836 835 836 837 837 837 838 839 839 840 841 842 842 842 842 842 842 842 842 842 842 843 843 843 843 843 843 843 843 843 843 843 843 843 843 843 843 843 843 843 843 843 843 843 844 844 844 844 845 845 845
817 819 820 821 822 823 824 825 826 827 828 829 829 830 831 831 832 833 834 834 835 835 836 836 836 836 837 837 837 838 838 838 839 840 840 838 837 837 837 837 837 838 839 840 840 841 842 842 842 842 842 842 841 841 842 842 843 843 843 843 843 842 842 842 842 842 842 842 842 842 842 842 842 842 842 842 842 842 842 842 842 842 842 843 843
816 817 819 820 821 822 823 824 825 826 826 828 829 829 830 830 831 832 833 834 834 835 835 836 836 836 837 837 837 837 837 838 838 839 841 841 839 837 836 836 837 838 839 839 839 840 841 842 842 842 842 841 842 842 841 841 842 842 843 843 842 842 842 842 842 841 841 841 841 840 841 841 840 840 840 840 840 840 840 840 841 841 841 841 841
815 816 817 818 819 821 822 823 824 824 825 826 827 828 828 829 830 831 832 833 834 834 835 835 835 836 836 836 837 837 837 837 838 837 838 841 841 838 836 836 836 838 838 838 839 840 841 841 842 842 842 841 841 842 841 841 841 842 842 842 842 842 842 841 841 841 841 841 840 840 840 839 839 839 839 839 838 838 839 839 839 839 839 839 839
813 814 815 816 817 819 820 821 822 823 824 825 826 826 827 828 829 830 831 832 833 834 834 834 834 835 836 836 836 837 837 837 837 838 837 838 839 837 836 836 836 837 838 838 839 840 840 841 841 841 842 841 841 841 841 841 840 840 841 842 842 842 841 841 841 840 840 840 840 839 839 839 839 838 838 838 837 837 837 837 837 837 837 837 837
811 812 814 815 816 818 818 819 820 821 823 824 825 825 826 827 828 829 830 830 831 832 833 833 834 834 834 834 835 835 836 836 836 837 837 837 838 837 836 836 836 837 837 837 838 838 839 840 840 840 840 840 840 841 840 840 840 839 840 840 840 840 840 840 840 839 839 839 838 838 838 838 838 838 837 837 836 836 836 835 835 835 835 835 835
809 810 812 813 815 816 817 818 819 820 822 823 824 824 825 826 827 827 828 828 829 830 831 832 833 833 833 833 833 834 834 835 835 836 836 836 837 837 836 836 836 836 836 836 836 837 838 838 838 838 838 838 838 839 839 839 839 839 838 839 839 839 839 838 838 838 837 837 837 837 837 837 836 837 836 836 836 835 835 834 834 834 833 833 833
807 808 810 811 813 814 816 816 817 819 821 822 823 823 824 825 825 826 827 827 828 828 830 831 832 833 833 832 832 832 833 833 834 834 835 835 836 837 837 837 837 837 836 836 836 836 836 836 836 836 836 836 836 837 837 837 838 838 837 837 837 837 837 837 836 836 836 836 835 835 835 835 835 835 835 835 834 834 834 833 833 833 832 832 831
804 806 808 809 810 812 814 815 816 818 819 820 821 822 823 823 824 826 827 827 827 828 828 829 831 832 832 832 831 831 831 832 833 833 834 835 835 836 837 837 837 837 836 836 835 835 835 834 834 834 835 835 835 835 835 836 836 836 836 836 836 836 835 835 835 835 834 834 834 834 833 833 833 833 832 832 832 832 832 832 832 831 831 830 830
802 804 806 807 808 810 813 814 815 816 817 819 820 820 821 822 823 825 826 827 827 827 827 828 830 831 832 832 832 831 831 831 832 833 833 834 834 835 836 838 839 838 836 835 835 834 834 833 833 833 833 834 834 834 834 834 835 835 835 835 834 834 834 833 833 833 832 832 832 832 831 831 831 831 830 830 830 830 830 830 830 829 829 829 828
800 802 803 804 806 808 810 812 813 814 815 817 819 820 821 822 823 824 825 826 827 827 827 828 829 830 831 832 832 831 831 830 831 832 832 833 834 835 836 837 839 840 838 836 835 834 833 833 833 833 833 833 833 833 833 833 833 833 833 833 833 832 832 832 831 831 830 830 830 830 829 829 829 828 828 827 827 827 827 827 827 827 827 827 826
797 798 800 802 804 805 807 809 810 811 813 815 817 819 820 821 822 823 824 825 826 827 827 827 828 829 830 831 831 831 831 831 831 831 832 833 833 835 835 836 837 839 839 839 836 833 833 833 833 832 832 832 832 832 832 832 832 832 832 831 831 830 830 830 830 829 828 828 828 827 827 827 826 826 825 824 824 824 824 824 824 825 824 824 824
794 796 798 800 802 803 804 806 807 809 812 813 816 817 818 820 821 822 823 824 825 825 826 827 828 828 829 829 830 830 831 831 831 831 831 832 833 834 835 835 836 836 837 838 836 833 833 833 832 832 832 831 831 831 831 831 830 830 830 830 830 829 828 828 827 827 826 826 825 824 824 824 823 823 822 822 821 821 821 821 821 822 821 821 821
791 793 795 797 799 801 802 804 806 808 810 812 814 815 817 818 819 820 821 822 823 823 824 825 826 827 828 828 828 829 829 830 830 831 831 832 832 833 833 834 834 835 835 836 836 833 832 832 831 832 831 831 830 830 830 829 829 829 829 828 828 828 827 826 825 824 823 823 822 822 821 821 820 820 820 819 819 818 818 818 818 818 818 818 817
788 790 792 793 795 798 800 802 804 806 808 810 811 813 815 816 817 818 819 820 821 821 822 822 823 825 826 827 827 827 828 828 829 830 831 831 831 831 832 832 833 833 833 834 833 831 831 831 830 830 830 829 828 828 827 827 827 827 827 826 826 825 825 824 823 822 821 821 820 819 818 818 817 817 817 816 816 816 816 815 815 815 814 814 814
785 787 789 790 792 795 797 799 801 802 804 806 808 810 812 813 814 816 817 818 819 820 820 820 821 823 824 825 826 826 826 827 827 828 829 829 830 830 830 830 831 831 831 831 831 829 828 829 829 828 828 828 827 826 825 824 824 824 824 823 823 822 822 821 820 820 819 819 818 817 816 815 815 814 813 813 813 813 813 812 812 812 811 811 811
781 783 785 787 789 792 794 796 797 799 801 803 805 806 808 810 811 813 814 815 816 817 818 819 819 820 821 822 823 824 825 825 825 826 827 827 828 828 828 828 828 829 829 828 828 827 826 826 827 827 827 826 825 824 823 823 823 822 822 821 820 820 819 818 818 817 816 816 816 815 814 813 812 811 811 810 810 810 810 809 809 808 808 807 807
778 779 781 783 785 787 789 791 793 795 797 799 801 803 804 806 808 809 810 812 813 814 815 816 817 818 819 819 820 822 822 823 823 823 824 825 825 825 825 825 826 826 826 826 826 825 824 823 823 824 824 823 822 822 822 822 821 821 820 819 818 817 816 815 815 814 814 813 813 812 811 811 810 809 808 807 807 806 806 806 806 805 804 804 803
774 775 777 779 781 782 784 786 788 790 792 794 797 799 800 802 804 805 807 808 810 811 813 814 815 816 816 817 818 819 820 820 820 821 822 822 822 823 823 823 824 824 824 824 824 823 822 821 820 820 820 820 819 819 820 820 819 818 817 816 815 814 813 813 812 811 811 810 810 809 808 808 807 806 805 804 804 803 803 802 802 801 801 801 800
770 771 773 775 777 778 780 782 784 785 787 789 792 794 796 798 800 802 804 805 807 809 810 812 813 814 814 815 816 816 817 817 818 819 820 820 821 821 821 822 822 822 822 822 822 821 821 820 818 818 818 818 817 817 818 817 816 815 814 813 812 811 811 810 809 809 808 807 807 806 805 804 804 803 802 801 801 800 799 799 798 798 797 797 797
766 768 769 771 773 774 776 778 780 781 783 784 787 789 792 794 797 799 800 802 804 806 808 809 811 811 812 812 813 814 814 815 815 817 818 818 819 819 820 820 820 820 819 819 819 819 819 818 817 816 816 816 815 815 815 815 813 812 810 810 809 809 808 807 807 806 805 805 804 803 802 801 801 800 799 798 797 797 796 795 795 794 794 793 793
763 764 765 767 769 771 773 774 776 778 779 781 783 786 788 791 793 796 797 799 801 803 805 807 808 809 810 810 811 811 812 812 813 814 815 816 817 817 818 818 818 818 817 817 817 817 817 816 816 815 814 814 813 812 812 812 811 810 809 808 807 807 806 805 804 803 803 802 801 800 799 798 798 797 796 795 794 793 792 792 791 790 789 789 788
759 761 762 764 765 767 769 771 773 775 777 779 780 783 786 788 791 793 794 796 798 800 803 804 805 807 808 808 808 809 809 810 811 812 813 814 815 815 816 816 816 815 815 815 815 815 815 814 813 813 812 811 810 810 809 809 808 807 806 806 805 804 803 803 802 801 800 799 798 797 796 795 794 793 792 791 791 790 789 787 787 786 785 784 783
756 759 760 762 763 765 767 769 772 773 775 777 778 781 785 787 788 790 792 793 795 797 800 801 802 804 805 806 806 807 807 807 808 810 811 812 813 813 813 813 813 813 813 813 813 812 812 812 811 810 810 809 808 808 807 807 806 805 804 804 803 802 801 800 799 799 798 796 795 793 793 792 790 789 789 788 787 786 785 784 783 782 781 780 779
753 756 758 760 761 763 765 768 770 772 773 776 777 780 783 785 785 787 788 790 792 795 796 798 800 801 802 804 805 807 808 806 806 807 808 810 810 811 811 811 811 810 810 810 810 810 810 809 809 808 807 806 806 806 805 805 805 804 803 802 801 800 799 798 796 796 795 794 792 790 789 789 788 786 785 784 783 782 781 780 779 778 777 776 775
750 753 755 756 758 760 763 766 768 770 771 773 774 775 778 781 782 784 786 788 790 792 794 796 798 798 800 801 803 805 806 805 804 805 806 807 808 808 808 808 808 808 807 807 807 807 807 807 807 806 805 804 803 804 803 803 803 802 802 801 800 799 798 796 794 793 793 792 790 787 786 786 785 782 781 780 779 777 777 775 774 773 773 772 772
747 749 752 753 755 757 759 762 765 767 769 770 771 773 775 777 780 782 784 787 788 790 792 794 796 797 798 799 800 801 802 802 803 804 804 805 806 806 806 806 806 805 805 805 805 805 805 805 804 803 802 801 801 801 801 801 800 800 800 799 798 797 796 795 793 791 791 791 789 785 781 781 782 779 776 775 774 773 772 771 770 769 768 768 767
745 747 749 751 753 755 757 759 762 764 767 768 769 771 773 776 779 781 784 786 788 789 791 792 793 795 796 797 798 799 800 800 801 802 802 803 804 804 804 803 803 803 803 803 803 803 803 802 801 800 799 799 799 799 799 799 799 798 797 797 796 795 794 793 791 790 789 789 788 783 777 776 777 775 772 771 770 769 768 767 765 765 764 764 763
743 745 747 749 751 753 755 757 759 762 764 766 767 769 772 774 778 780 782 785 787 788 789 790 791 793 795 795 796 797 797 797 798 799 799 801 801 801 801 801 800 800 800 800 800 800 799 799 798 797 797 797 797 797 797 797 797 796 796 795 794 793 791 790 789 787 786 786 785 780 773 771 773 771 768 767 766 764 764 763 762 762 761 760 760
741 742 744 747 749 752 753 755 757 759 761 763 766 768 770 772 775 778 780 782 784 786 787 788 790 792 793 793 794 795 796 796 795 796 797 798 798 798 799 798 798 798 798 797 797 797 796 795 795 795 795 795 795 795 795 795 795 794 794 793 792 790 788 787 785 784 783 782 782 778 771 767 769 767 764 763 762 760 760 760 759 759 758 757 756
740 740 743 745 747 750 752 754 756 757 760 762 764 766 768 770 773 776 778 780 781 783 784 786 788 789 790 790 791 793 794 794 793 794 795 796 796 796 796 796 797 796 796 796 796 795 794 793 793 792 792 793 793 793 793 793 792 792 791 790 789 787 785 784 782 780 779 779 779 776 770 765 766 765 762 761 760 758 757 756 756 755 755 753 752
739 740 741 743 746 748 751 753 755 756 758 759 761 763 765 768 770 773 776 778 779 780 782 783 785 786 786 788 789 790 791 791 791 791 793 794 794 794 795 795 795 795 794 794 794 793 792 791 791 791 790 791 791 791 791 790 790 789 789 787 785 783 782 781 779 777 776 775 775 773 768 764 763 763 760 758 757 756 754 753 752 751 750 749 747
738 739 740 742 745 747 749 752 754 754 755 757 758 760 762 765 768 770 773 775 776 778 779 780 782 783 783 784 786 787 788 788 789 790 791 792 793 793 794 794 794 793 793 792 792 791 790 789 789 789 789 789 789 788 788 788 787 786 785 783 781 780 780 779 776 775 773 772 772 770 766 763 762 762 759 756 753 752 751 750 748 748 746 745 744
738 739 740 742 745 746 749 752 752 752 754 755 757 759 761 763 765 767 770 772 774 775 777 778 779 780 780 781 782 784 785 785 787 789 790 791 791 792 792 792 792 792 791 790 790 789 789 788 788 788 787 787 786 786 785 784 783 782 781 779 779 779 778 777 775 773 771 769 769 768 765 762 761 761 760 756 751 748 747 747 746 744 743 741 740